| time (UTC) | temp F | wind direction | speed MPH | gust MPH | rain 1hr in | rain 24hr in | rain mn in | humidity % | barometer mb |
| 20260502161528 | 60 | 66 | 3.0 | 7.0 | 0.00 | 0.01 | 0.01 | 32 | |
| 20260502160535 | 60 | 33 | 3.0 | 5.0 | 0.00 | 0.01 | 0.01 | 33 | |
| 20260502151529 | 57 | 253 | 3.0 | 6.0 | 0.00 | 0.01 | 0.01 | 36 | |
| 20260502150533 | 56 | 323 | 2.0 | 5.0 | 0.00 | 0.01 | 0.01 | 37 | |
| 20260502130533 | 37 | 217 | 0.0 | 2.0 | 0.00 | 0.01 | 0.01 | 81 | |
| 20260502123533 | 35 | 264 | 1.0 | 2.0 | 0.00 | 0.01 | 0.01 | 85 | |
| 20260502122521 | 34 | 0.0 | 0.0 | 0.00 | 0.01 | 0.01 | 87 | ||
| 20260502121527 | 33 | 0.0 | 0.0 | 0.00 | 0.01 | 0.01 | 89 | ||
| 20260502120533 | 32 | 270 | 0.0 | 2.0 | 0.00 | 0.01 | 0.01 | 93 | |
| 20260502115542 | 31 | 0.0 | 0.0 | 0.00 | 0.01 | 0.01 | 95 | ||
| 20260502114547 | 31 | 0.0 | 0.0 | 0.00 | 0.01 | 0.01 | 95 | ||
| 20260502113533 | 30 | 0.0 | 0.0 | 0.00 | 0.01 | 0.01 | 95 | ||
| 20260502112521 | 30 | 0.0 | 0.0 | 0.00 | 0.01 | 0.01 | 94 | ||
| 20260502111527 | 30 | 0.0 | 0.0 | 0.00 | 0.01 | 0.01 | 92 | ||
| 20260502110533 | 30 | 0.0 | 0.0 | 0.00 | 0.01 | 0.01 | 92 | ||
| 20260502105542 | 30 | 0.0 | 0.0 | 0.00 | 0.01 | 0.01 | 92 | ||
| 20260502104527 | 30 | 0.0 | 0.0 | 0.00 | 0.01 | 0.01 | 92 | ||
| 20260502103534 | 30 | 0.0 | 0.0 | 0.00 | 0.01 | 0.01 | 92 | ||
| 20260502102521 | 31 | 0.0 | 0.0 | 0.00 | 0.01 | 0.01 | 90 | ||
| 20260502101527 | 31 | 0.0 | 0.0 | 0.00 | 0.01 | 0.01 | 90 | ||
| 20260502100533 | 31 | 0.0 | 0.0 | 0.00 | 0.01 | 0.01 | 90 | ||
| 20260502090553 | 33 | 0.0 | 0.0 | 0.00 | 0.01 | 0.01 | 88 | ||
| 20260502071527 | 36 | 0.0 | 0.0 | 0.00 | 0.01 | 0.01 | 82 | ||
| 20260502070533 | 36 | 0.0 | 0.0 | 0.00 | 0.01 | 0.01 | 81 | ||
| 20260502065521 | 36 | 0.0 | 0.0 | 0.00 | 0.01 | 0.01 | 80 | ||
| 20260502064527 | 37 | 0.0 | 0.0 | 0.00 | 0.01 | 0.01 | 79 | ||
| 20260502063533 | 37 | 0.0 | 0.0 | 0.00 | 0.01 | 0.01 | 79 | ||
| 20260502062520 | 37 | 0.0 | 0.0 | 0.00 | 0.01 | 0.01 | 79 | ||
| 20260502061527 | 38 | 0.0 | 0.0 | 0.00 | 0.01 | 0.01 | 79 | ||
| 20260502060532 | 38 | 0.0 | 0.0 | 0.00 | 0.01 | 0.01 | 80 | ||
| 20260502055541 | 38 | 0.0 | 0.0 | 0.00 | 0.01 | 0.01 | 80 | ||
| 20260502054527 | 38 | 0.0 | 0.0 | 0.00 | 0.01 | 0.01 | 80 | ||
| 20260502053533 | 38 | 0.0 | 0.0 | 0.00 | 0.01 | 0.01 | 80 | ||
| 20260502052521 | 39 | 0.0 | 0.0 | 0.00 | 0.01 | 0.01 | 78 | ||
| 20260502051527 | 39 | 0.0 | 0.0 | 0.00 | 0.01 | 0.01 | 77 | ||
| 20260502050535 | 40 | 0.0 | 0.0 | 0.00 | 0.01 | 0.01 | 76 | ||
| 20260502045521 | 40 | 0.0 | 0.0 | 0.00 | 0.01 | 0.01 | 76 | ||
| 20260502044529 | 40 | 0.0 | 0.0 | 0.00 | 0.01 | 0.01 | 71 | ||
| 20260502043533 | 40 | 0.0 | 0.0 | 0.00 | 0.01 | 0.01 | 72 | ||
| 20260502042543 | 41 | 0.0 | 0.0 | 0.00 | 0.01 | 0.01 | 69 | ||
| 20260502041527 | 42 | 0.0 | 0.0 | 0.00 | 0.01 | 0.01 | 66 | ||
| 20260502040533 | 42 | 0.0 | 0.0 | 0.00 | 0.01 | 0.01 | 66 | ||
| 20260502035520 | 43 | 0.0 | 0.0 | 0.00 | 0.01 | 0.01 | 65 | ||
| 20260502034526 | 43 | 0.0 | 0.0 | 0.00 | 0.01 | 0.01 | 63 | ||
| 20260502033553 | 43 | 0.0 | 0.0 | 0.00 | 0.01 | 0.01 | 62 | ||
| 20260502032521 | 44 | 0.0 | 0.0 | 0.00 | 0.01 | 0.01 | 63 | ||
| 20260502031527 | 44 | 0.0 | 0.0 | 0.00 | 0.01 | 0.01 | 62 | ||
| 20260502030533 | 44 | 0.0 | 0.0 | 0.00 | 0.01 | 0.01 | 60 | ||
| 20260502025523 | 45 | 0.0 | 0.0 | 0.00 | 0.01 | 0.01 | 58 | ||
| 20260502024607 | 45 | 0.0 | 0.0 | 0.00 | 0.01 | 0.01 | 58 | ||
| 20260502023533 | 45 | 0.0 | 0.0 | 0.00 | 0.01 | 0.01 | 58 | ||
| 20260502022521 | 46 | 0.0 | 0.0 | 0.00 | 0.01 | 0.01 | 56 | ||
| 20260502021529 | 46 | 0.0 | 0.0 | 0.00 | 0.01 | 0.01 | 55 | ||
| 20260502020532 | 46 | 0.0 | 0.0 | 0.00 | 0.01 | 0.01 | 55 | ||
| 20260502015541 | 47 | 0.0 | 0.0 | 0.00 | 0.01 | 0.01 | 54 | ||
| 20260502014527 | 47 | 0.0 | 0.0 | 0.00 | 0.01 | 0.01 | 53 | ||
| 20260502013535 | 48 | 0.0 | 0.0 | 0.00 | 0.01 | 0.01 | 51 | ||
| 20260502012541 | 49 | 0.0 | 0.0 | 0.00 | 0.01 | 0.01 | 49 | ||
| 20260502011527 | 50 | 19 | 1.0 | 2.0 | 0.00 | 0.01 | 0.01 | 48 | |
| 20260502010533 | 51 | 0.0 | 0.0 | 0.01 | 0.01 | 0.01 | 45 | ||
| 20260502005521 | 52 | 0.0 | 0.0 | 0.01 | 0.01 | 0.01 | 44 | ||
| 20260502004547 | 53 | 359 | 1.0 | 3.0 | 0.01 | 0.01 | 0.01 | 41 | |
| 20260502003533 | 55 | 2 | 3.0 | 4.0 | 0.01 | 0.01 | 0.01 | 39 | |
| 20260502002521 | 57 | 15 | 3.0 | 5.0 | 0.01 | 0.01 | 0.01 | 38 | |
| 20260502001526 | 58 | 29 | 3.0 | 4.0 | 0.01 | 0.01 | 0.01 | 37 | |
| 20260502000552 | 59 | 5 | 2.0 | 3.0 | 0.00 | 0.00 | 0.00 | 36 | |
| 20260501235521 | 60 | 21 | 2.0 | 4.0 | 0.00 | 0.00 | 0.00 | 37 | |
| 20260501234527 | 59 | 8 | 1.0 | 4.0 | 0.00 | 0.00 | 0.00 | 38 | |
| 20260501233532 | 58 | 24 | 3.0 | 4.0 | 0.00 | 0.00 | 0.00 | 38 | |
| 20260501232540 | 57 | 2 | 2.0 | 3.0 | 0.00 | 0.00 | 0.00 | 39 | |
| 20260501231526 | 57 | 343 | 3.0 | 4.0 | 0.00 | 0.00 | 0.00 | 39 | |
| 20260501230532 | 57 | 2 | 3.0 | 6.0 | 0.00 | 0.00 | 0.00 | 39 | |
| 20260501225520 | 58 | 336 | 2.0 | 5.0 | 0.00 | 0.00 | 0.00 | 38 | |
| 20260501224526 | 59 | 37 | 3.0 | 5.0 | 0.00 | 0.00 | 0.00 | 37 | |
| 20260501223532 | 60 | 54 | 3.0 | 6.0 | 0.00 | 0.00 | 0.00 | 37 | |
| 20260501222520 | 60 | 24 | 3.0 | 6.0 | 0.00 | 0.00 | 0.00 | 39 | |
| 20260501221526 | 57 | 24 | 4.0 | 5.0 | 0.00 | 0.00 | 0.00 | 39 | |
| 20260501220532 | 59 | 336 | 3.0 | 6.0 | 0.00 | 0.00 | 0.00 | 39 | |
| 20260501215540 | 59 | 346 | 3.0 | 6.0 | 0.00 | 0.00 | 0.00 | 39 | |
| 20260501214546 | 56 | 319 | 3.0 | 5.0 | 0.00 | 0.00 | 0.00 | 41 | |
| 20260501213553 | 57 | 20 | 3.0 | 6.0 | 0.00 | 0.00 | 0.00 | 40 | |
| 20260501212520 | 57 | 355 | 4.0 | 7.0 | 0.00 | 0.00 | 0.00 | 39 | |
| 20260501211526 | 57 | 340 | 3.0 | 5.0 | 0.00 | 0.00 | 0.00 | 40 | |
| 20260501210531 | 57 | 29 | 3.0 | 4.0 | 0.00 | 0.00 | 0.00 | 40 | |
| 20260501205521 | 58 | 14 | 3.0 | 5.0 | 0.00 | 0.00 | 0.00 | 39 | |
| 20260501204526 | 58 | 24 | 3.0 | 6.0 | 0.00 | 0.00 | 0.00 | 37 | |
| 20260501203532 | 62 | 19 | 3.0 | 5.0 | 0.00 | 0.00 | 0.00 | 34 | |
| 20260501202520 | 58 | 302 | 3.0 | 5.0 | 0.00 | 0.00 | 0.00 | 38 | |
| 20260501201526 | 57 | 353 | 4.0 | 7.0 | 0.00 | 0.00 | 0.00 | 38 | |
| 20260501200552 | 57 | 359 | 3.0 | 4.0 | 0.00 | 0.00 | 0.00 | 41 | |
| 20260501195519 | 58 | 354 | 3.0 | 5.0 | 0.00 | 0.00 | 0.00 | 38 | |
| 20260501194545 | 59 | 50 | 3.0 | 5.0 | 0.00 | 0.00 | 0.00 | 38 | |
| 20260501193531 | 60 | 340 | 3.0 | 8.0 | 0.00 | 0.00 | 0.00 | 38 | |
| 20260501192520 | 57 | 353 | 4.0 | 7.0 | 0.00 | 0.00 | 0.00 | 39 | |
| 20260501191526 | 60 | 18 | 3.0 | 5.0 | 0.00 | 0.00 | 0.00 | 36 | |
| 20260501190531 | 60 | 5 | 3.0 | 4.0 | 0.00 | 0.00 | 0.00 | 38 | |
| 20260501185519 | 56 | 12 | 2.0 | 4.0 | 0.00 | 0.00 | 0.00 | 40 | |
| 20260501184525 | 57 | 27 | 3.0 | 6.0 | 0.00 | 0.00 | 0.00 | 41 | |
| 20260501183531 | 57 | 359 | 2.0 | 3.0 | 0.00 | 0.00 | 0.00 | 41 | |
| 20260501182519 | 56 | 2 | 1.0 | 3.0 | 0.00 | 0.00 | 0.00 | 42 | |
| 20260501181525 | 57 | 33 | 3.0 | 6.0 | 0.00 | 0.00 | 0.00 | 44 | |
| 20260501180532 | 57 | 25 | 3.0 | 7.0 | 0.00 | 0.00 | 0.00 | 43 | |
| 20260501175519 | 56 | 336 | 2.0 | 4.0 | 0.00 | 0.00 | 0.00 | 45 | |
| 20260501174525 | 58 | 29 | 3.0 | 5.0 | 0.00 | 0.00 | 0.00 | 42 | |
| 20260501173531 | 62 | 323 | 4.0 | 7.0 | 0.00 | 0.00 | 0.00 | 40 | |
| 20260501172523 | 58 | 41 | 3.0 | 6.0 | 0.00 | 0.00 | 0.00 | 44 | |
| 20260501171525 | 60 | 47 | 3.0 | 4.0 | 0.00 | 0.00 | 0.00 | 43 | |
| 20260501170531 | 60 | 281 | 3.0 | 5.0 | 0.00 | 0.00 | 0.00 | 45 | |
| 20260501165539 | 58 | 27 | 2.0 | 3.0 | 0.00 | 0.00 | 0.00 | 47 | |
| 20260501164526 | 59 | 322 | 3.0 | 6.0 | 0.00 | 0.00 | 0.00 | 48 | |
| 20260501163531 | 58 | 9 | 2.0 | 4.0 | 0.00 | 0.00 | 0.00 | 48 | |
| 20260501162519 | 59 | 19 | 3.0 | 5.0 | 0.00 | 0.00 | 0.00 | 48 |